Regional Weather Roundup
Issued by NWS

Home | Current Version | Previous Version | Text Only | Print | Product List | Glossary Off
Versions: 1 2 3 4 5 6 7 8 9 10 11 12 13 14 15 16 17 18 19 20 21 22 23 24 25 26 27 28 29 30 31 32 33 34 35 36 37 38 39 40 41 42 43 44 45 46 47 48 49 50

000
ASUS43 KMKX 191600
RWRWI

WISCONSIN REGIONAL WEATHER ROUNDUP
NATIONAL WEATHER SERVICE MILWAUKEE/SULLIVAN WI
1100 AM CDT SAT APR 19 2014

NOTE: "FAIR" INDICATES FEW OR NO CLOUDS BELOW 12,000 FEET WITH NO
SIGNIFICANT WEATHER AND/OR OBSTRUCTIONS TO VISIBILITY.

WIZ001-002-006>008-014>016-023>028-191700-
NORTHWEST WISCONSIN

CITY           SKY/WX    TMP DP  RH WIND       PRES   REMARKS
SUPERIOR ARPT  CLOUDY    34  32  91 NE7       30.12S WCI  28
ASHLAND        CLOUDY    42  24  49 VRB6      30.15F
HAYWARD        CLOUDY    41  24  51 SE13G18   30.14F
SIREN          CLOUDY    42  27  55 S17G30    30.09F
RICE LAKE      CLOUDY    44  26  49 SE20G25   30.18F
LADYSMITH      SUNNY     45  28  51 SE13G23   30.23F
EAU CLAIRE     MOSUNNY   51  26  37 S21G28    30.19F
MENOMONIE      MOSUNNY   48  26  43 SE20      30.19F
NEW RICHMOND   CLOUDY    47  29  50 S16G26    30.13F
OSCEOLA        CLOUDY    46  32  57 SE17G24   30.13F
$$

WIZ003>005-009-010-017-018-191700-
NORTH CENTRAL WISCONSIN

CITY           SKY/WX    TMP DP  RH WIND       PRES   REMARKS
WOODRUFF       PTSUNNY   44  23  44 S15G23    30.25F
RHINELANDER    SUNNY     40  22  48 SE14G25   30.28F WCI  32
EAGLE RIVER    MOSUNNY   40  20  43 S12G17    30.28S WCI  33
LAND O LAKES   PTSUNNY   41  21  45 SE9G20    30.28F
PHILLIPS       PTSUNNY   40  23  50 SE15G25   30.23F WCI  32
TOMAHAWK       SUNNY     41  24  50 SE9G20    30.27F
MEDFORD        SUNNY     40  27  57 SE17G23   30.26F WCI  32
MERRILL        SUNNY     42  27  54 CALM      30.30S
$$

WIZ029-030-035-036-043>047-191700-
CENTRAL WISCONSIN

CITY           SKY/WX    TMP DP  RH WIND       PRES   REMARKS
WAUSAU         SUNNY     45  25  45 SE13G24   30.28F
MOSINEE        SUNNY     43  27  52 SE16G22   30.31F
MARSHFIELD     MOSUNNY   46  27  47 S17       30.27F
STEVENS POINT  SUNNY     42  24  48 SE13G23   30.32F
WAUPACA        SUNNY     46  27  46 SE15      30.35F
WAUTOMA        NOT AVBL
WISC RAPIDS    MOSUNNY   49  24  37 SE12G20   30.30F
CAMP DOUGLAS   NOT AVBL
$$

WIZ011>013-019>022-031-037>040-048>050-191700-
NORTHEAST WISCONSIN

CITY           SKY/WX    TMP DP  RH WIND       PRES   REMARKS
ANTIGO         SUNNY     39  28  65 SE14      30.32S WCI  31
STURGEON BAY   SUNNY     39  27  60 S13G22    30.40F WCI  32
GREEN BAY      SUNNY     44  32  62 SE14      30.38F
MANITOWOC      NOT AVBL
APPLETON       MOSUNNY   41  28  60 SE16      30.37F
CLINTONVILLE   SUNNY     43  30  61 SE12G18   30.36F
OSHKOSH        MOSUNNY   45  29  53 SE14      30.35F
$$

WIZ032>034-041-042-053>061-191700-
SOUTHWEST WISCONSIN

CITY           SKY/WX    TMP DP  RH WIND       PRES   REMARKS
LA CROSSE      MOSUNNY   53  27  36 SE14      30.23F
SPARTA         PTSUNNY   50  23  34 SE13G18   30.28F
VIROQUA        FAIR      48  28  45 SE18      30.26F
BOSCOBEL       SUNNY     55  27  34 SE12G24   30.30F
PRAIRIE DU CHI SUNNY     51  26  37 E14       30.28F
PLATTEVILLE    FAIR      52  27  38 SE20      30.31F
$$

WIZ056-057-062-063-064-067-068-191700-
SOUTH CENTRAL WISCONSIN

CITY           SKY/WX    TMP DP  RH WIND       PRES   REMARKS
BARABOO/DELLS  MOSUNNY   47  26  43 SE10      30.32F
LONE ROCK      NOT AVBL
WATERTOWN      SUNNY     48  32  54 SE12      30.35F
MADISON        PTSUNNY   52  30  43 SE13      30.34F
MIDDLETON      FAIR      50  28  43 SE10      30.34F
MONROE         MOSUNNY   50  31  46 E12G18    30.32S
JANESVILLE     SUNNY     54  32  43 E15       30.34F
$$

WIZ051-052-058>065-066-070>072-191700-
SOUTHEAST WISCONSIN

CITY           SKY/WX    TMP DP  RH WIND       PRES   REMARKS
MILWAUKEE      PTSUNNY   42  33  70 SE13      30.41F
WAUKESHA       NOT AVBL
MILWAUKEE/TIMM SUNNY     41  30  65 E14       30.40F
RACINE         MOSUNNY   42  33  70 E13       30.41F
BURLINGTON     MOSUNNY   45  34  65 SW10G18   30.37F
KENOSHA        SUNNY     43  34  70 E13       30.38F
FOND DU LAC    MOSUNNY   46  30  53 SE16      30.36F
SHEBOYGAN      PTSUNNY   41  31  67 SE13G18   30.41S
WEST BEND      MOSUNNY   41  30  65 E13       30.39S
JUNEAU         MOSUNNY   45  28  51 E14       30.36F
$$

LSZ147-162-191700-
LAKE SUPERIOR

STATION/POSITION TIME  TEMP    WIND        PRES    WAVE
                       AIR SEA DIR/SP/G            HT/PER
                 (UTC) (F)     (DEG/KT/KT) (MB)    (FT/S)
DEVILS ISLAND    1500   33     100/ 18/ 20 1023.7F
PORT WING        1540   34      40/ 13/ 14 1020.3F
SAXON HARBOR     1500           CALM  /  8 1022.4R
$$

LMZ867-665-643>646-191700-
LAKE MICHIGAN

STATION/POSITION TIME  TEMP    WIND        PRES    WAVE
                       AIR SEA DIR/SP/G            HT/PER
                 (UTC) (F)     (DEG/KT/KT) (MB)    (FT/S)
NORTHPORT PIER   1500   33     130/ 10/ 12 1030.5F
SISTER BAY       1509   42     150/ 12/ 17   N/A
KEWAUNEE LAKESHO 1500   35     120/ 10/ 12 1030.5F
SHEBOYGAN LAKESH 1500   35     120/  8/  9 1031.1F
PORT WASHINGTON  1540   37     140/  5/  6 1030.5F
MILWAUKEE LAKESH 1500   36     120/  9/ 11   N/A
KENOSHA   LAKESH 1500   37     100/  6/  9   N/A
$$

TC  - TEMPERATURE IN CELSIUS
VSB - VISIBILITY IN STATUTE MILES
WCI - WIND CHILL INDEX
HX  - HEAT INDEX




USA.gov is the U.S. government's official web portal to all federal, state and local government web resources and services.